#timestamp,LO_Frequency,Hit,StdDev 
1561251615.2,286047002.3,N
1561251635.1,286047001.6,N
1561251655.1,286047002.3,N
1561251675.9,286047000.0,N
1561251695.7,286047000.1,N
1561251715.5,286046999.8,N
1561251735.4,286047004.3,Y
1561251755.2,286047004.4,P
1561251775.1,286047002.2,N
1561251776.0,286047002.2,N
1561251795.8,286047002.2,N
1561251815.6,286047002.2,N
1561251835.5,286047001.7,N
1561251855.3,286047002.3,N
1561251875.2,286047002.1,N
1561251895.9,286047002.1,N
1561251915.7,286047002.6,Y
1561251935.6,286046998.5,P
1561251955.4,286046999.4,N
1561251975.2,286046998.7,N
1561251995.1,286046999.1,N
1561251996.0,286046999.1,N
1561252015.8,286046999.4,N
1561252035.7,286046998.7,N
1561252055.5,286046996.9,N
1561252075.3,286046996.9,N
1561252095.2,286046996.8,N
1561252115.9,286046997.5,N
1561252135.7,286046994.9,Y
1561252155.6,286046999.3,P
1561252175.4,286046998.9,P
1561252195.3,286046999.4,N
1561252215.1,286046999.4,N
1561252235.8,286047001.2,Y
1561252255.7,286047000.6,P
1561252275.5,286047000.5,N
1561252295.4,286046998.7,N
1561252315.2,286046998.2,N
1561252335.0,286047000.3,N
1561252335.9,286047000.3,N
1561252355.8,286047000.6,N
1561252375.6,286047000.9,N
1561252395.4,286046999.8,N
1561252415.3,286047000.2,N
1561252435.1,286047002.8,Y
1561252455.9,286047000.4,P
1561252475.3,286047001.0,P
1561252495.1,286047000.0,N
1561252496.0,286047000.0,N
1561252515.8,286047000.5,N
1561252535.7,286047000.9,N
1561252555.5,286047000.2,N
1561252575.3,286046999.9,N
1561252595.2,286047000.5,N
1561252615.0,286047000.7,N
1561252615.9,286047000.7,N
1561252635.8,286047000.7,N
1561252655.6,286047001.0,N
1561252675.4,286047000.5,N
1561252695.3,286047002.8,Y
1561252715.1,286047001.0,P
1561252735.8,286046998.1,P
1561252755.7,286047001.1,N
1561252775.5,286047000.4,N
1561252795.4,286047001.6,N
1561252815.2,286047000.2,N
1561252835.0,286047000.4,N
1561252835.9,286047000.4,N
1561252855.8,286047002.1,N
1561252875.6,286047002.3,N
1561252895.4,286047002.7,N
1561252915.3,286047000.2,N
1561252935.1,286047002.7,N
1561252955.9,286046999.9,N
1561252975.7,286047000.1,N
1561252995.6,286047002.8,N
1561253015.4,286046999.8,N
1561253035.3,286046999.8,N
1561253055.1,286047002.2,N
1561253056.0,286047002.2,N
1561253075.8,286047002.4,N
1561253095.7,286047001.9,N
1561253115.5,286047001.3,N
1561253135.4,286047001.8,N
1561253155.2,286047002.5,N
1561253175.0,286047002.8,N
1561253175.9,286047002.8,N
1561253195.8,286047002.8,N
1561253215.6,286046999.7,N
1561253235.4,286047002.6,N
1561253255.3,286047003.9,Y
1561253275.1,286047001.6,P
1561253295.9,286046999.7,N
1561253315.7,286047002.6,P
1561253335.5,286047002.3,N
1561253355.4,286047001.0,N
1561253375.2,286046998.4,N
1561253395.0,286046996.6,N
1561253396.0,286046996.6,N
1561253415.8,286046999.4,N
1561253435.6,286046999.6,N
1561253455.5,286046996.6,N
1561253475.3,286046996.9,N
1561253495.1,286046997.1,N
1561253515.9,286046997.3,N
1561253535.7,286046996.9,N
1561253555.5,286046997.3,N
1561253575.4,286046996.8,N
1561253595.2,286046997.3,N
1561253615.1,286046999.3,N
1561253616.0,286046999.3,N
1561253635.8,286046998.2,N
1561253655.6,286046998.1,N
1561253675.5,286046998.4,N
1561253695.3,286046999.5,N
1561253715.1,286046996.9,N
1561253735.9,286046999.1,N
1561253755.7,286046999.1,N
1561253775.6,286046999.1,N
1561253795.4,286046998.4,N
1561253815.2,286046998.7,N
1561253835.1,286046999.6,N
1561253836.0,286046999.6,N
1561253855.8,286046998.1,N
1561253875.6,286046998.5,N
1561253895.5,286047000.7,N
1561253915.3,286047000.8,N
1561253935.2,286047001.1,N
1561253955.9,286046998.1,N
1561253975.7,286046998.1,N
1561253995.6,286046998.6,N
1561254015.4,286046998.1,N
1561254035.2,286046998.4,N
1561254055.1,286047000.8,N
1561254056.0,286047000.8,N
1561254075.8,286047000.7,N
1561254095.7,286047001.0,N
1561254115.5,286046998.8,N
1561254135.3,286046997.2,N
1561254155.2,286046997.0,N
1561254175.0,286046996.5,N
1561254175.9,286046996.5,N
1561254195.8,286046998.8,N
1561254215.6,286047001.1,N
1561254235.4,286046998.2,N
1561254255.3,286046998.5,N
1561254275.1,286046999.9,N
1561254295.8,286046998.3,N
1561254315.7,286046999.4,N
1561254335.5,286046996.6,N
1561254355.4,286046998.2,N
1561254375.2,286047000.7,N
1561254395.0,286046998.6,N
1561254395.9,286046998.6,N
1561254415.8,286046999.4,N
1561254435.6,286046996.5,N
1561254455.5,286046996.5,N
1561254475.3,286047001.2,N
1561254495.1,286046998.2,N
1561254515.9,286046999.0,N
1561254535.7,286046998.5,N
1561254555.6,286046998.5,N
1561254575.4,286046998.9,N
1561254595.2,286047001.2,N
1561254615.1,286047001.0,N
1561254616.0,286047001.0,N
1561254635.8,286046998.5,N
1561254655.6,286046998.8,N
1561254675.5,286046998.5,N
1561254695.3,286046998.6,N
1561254715.2,286046998.4,N
1561254735.9,286046998.7,N
1561254755.7,286046998.2,N
1561254775.6,286046998.5,N
1561254795.4,286046998.8,N
1561254815.2,286046998.7,N
1561254835.1,286047001.2,N
1561254836.0,286047001.2,N
1561254855.8,286047001.2,N
1561254875.7,286047000.7,N
1561254895.5,286046998.7,N
1561254915.3,286046996.5,N
1561254935.2,286046996.7,N
1561254955.0,286046996.9,N
1561254955.9,286046996.9,N
1561254975.8,286046997.0,N
1561254995.6,286046999.6,N
1561255015.4,286046999.5,N
1561255035.3,286046999.6,N
1561255055.1,286046998.4,N
1561255075.8,286046998.3,N
1561255095.7,286046998.2,N
1561255115.5,286046998.2,N
1561255135.3,286046998.3,N
1561255155.2,286046999.2,N
1561255175.0,286046999.4,N
1561255175.9,286046999.4,N
1561255195.8,286046998.6,N
